Location: El Portezuelo
(28.4984°N, 16.3589°W)
Time: 22:49:07
(UTC+00:00)

USA 32 - Pass Details

Date: 20 January 2020
Orbit: 777 x 783 km, 85.0° (Epoch: 29 January)

Event Time Altitude Azimuth Distance (km) Brightness Sun altitude
Rises 07:07:24 0° 354° (N) 3,262 7.0 -11.3°
Reaches altitude 10° 07:09:46 10° 353° (N) 2,333 6.3 -10.9°
Maximum altitude 07:14:58 74° 269° (W) 812 4.0 -9.8°
Drops below altitude 10° 07:20:10 10° 185° (S) 2,325 6.7 -8.7°
Sets 07:22:31 0° 183° (S) 3,250 7.5 -8.2°
